CZ-6A DEB, 54609

Orbit data source: Space-Track

CZ-6A DEB, 54609 is space debris in SSO originally from a launch on Fri, 11 Nov 2022 UTC launched from the Taiyaun Space Center, China (TSC). Debris objects in space refer to the collection of defunct objects orbiting the Earth. Examples of debris include non-operational satellites, rocket bodies, and fragments generated from explosions, collisions, or faulty payload assembly.

Loading next visibility...
Identifier
54609, 2022-151NK
Orbit
SSO
Country
Flag of CNCN / PRC
Related business
Manufacturer
SAST
Mission
Spacecraft
Bus & Motor
Unknown
Mass
Unknown
Launch date (UTC)
2022-11-11 (4 years ago)
Launch vehicle
Unknown
Launch site
Taiyaun Space Center, China (TSC)
Object type
Payload
Rocket body
Debris
Shape & HBR
Unknown shape, 0.1 m
Radar Cross Section
Small (<0.1 m²)

Expand to show TLE details & history
Last TLE update: 6 hours ago

TLE from 6 hours ago
0 CZ-6A DEB
1 54609U 22151NK  26236.57749123  .00004001  00000-0  10899-2 0  9996
2 54609  98.7300 282.7117 0036724  80.5662 279.9678 14.47598714197476
Epoch: 2026-08-24T13:51Z
TLE epoch observation values (Epoch: 2026-08-24T13:51:35.242Z)
Latitude
-0.00002°
Longitude
101.95767°
Altitude
732.025 km
Speed
7.491 km/s
True Right ascension
18h 50m 50s
True Declination
0° 00' 00"
Sunlit
Object was in full shadow at epoch
Visualization orbit readout
Latitude
Unknown
Longitude
Unknown
Altitude
Unknown
Speed
Unknown
Apparent Right ascension
Unknown
Apparent Declination
Unknown
Sunlit
N/A
Visualization observer readout
Local Sidereal Time
10:52:02
Azimuth
Unknown
Elevation
Unknown
Doppler factor
Unknown
Orbital elements
Apogee altitude
756.731 km
Perigee altitude
704.519 km
Semi-major axis
7,108.762 km
Eccentricity
0.00367
Inclination
98.73°
RAAN
282.7117°
Arg. of periapsis
80.5662°
True anomaly
279.553°
Mean anomaly
279.9678°
Eccentric anomaly
279.76043°
Mean motion
3.6212 °/min
Orbital period
99.41 mins
BSTAR
0.0010899
Loading maneuver chart data...
Computing Atmospheric mass density...
Loading historical data...
Loading historical data...
Loading historical data...
Loading historical data...
Loading historical data...
Loading historical data...
Loading historical data...

Documentation

Showing up to 5 results
|